Volver al catálogo

COSMOS 2437

ActivoNavegaciónPO
NORAD 32954·PAYLOAD·🇷🇺 Russia

Lanzado May 23, 2008 desde Plesetsk Cosmodrome

Loading…

Próximos Pases (próximas 24 horas)

TLE

ActualizadoSource: Space-Track

Época: Sep 14, 2026, 14:12 UTC

1 32954U 08025B   26257.59185206 -.00000012  00000-0 -15773-3 0  9997
2 32954  82.5007 301.8955 0021533 132.6155  22.6667 12.42760819830476

Sigue COSMOS 2437 en tiempo real con AllMySat

Download on the App Store